Home   Weather   Arden-Arcade   Past weeks

Flag for USA Past Weather in Arden-Arcade, California, USA — Yesterday and Last 2 Weeks

Now
48 °F

Mostly cloudy.


Feels Like: 41 °F
Forecast: 47 / 52 °F
Wind: 20 mph from South

Location: Mather Field

Current Time: Jan 19, 2017 at 12:59:57 am

Latest Report: Jan 18, 2017 at 11:30 pm


Visibility: 10 mi

Pressure: 29.81 "Hg

Humidity: 87%

Dew Point: 45 °F

Location of Arden-ArcadeLocation

Past Weather in Arden-Arcade — Graph

°F

Arden-Arcade Temperature Yesterday

Maximum temperature yesterday: 48 °F (at 9:45 am)
Minimum temperature yesterday: 43 °F (at 2:45 am)
Average temperature yesterday: 47 °F

High & Low Weather Summary for the Past Weeks

 TemperatureHumidityPressure
High63 °F (Jan 8, 6:45 am)100% (Jan 4, 2:45 am)30.26 "Hg (Jan 4, 2:45 am)
Low28 °F (Jan 6, 6:45 am)54% (Jan 5, 1:45 pm)29.66 "Hg (Jan 10, 7:45 pm)
Average46 °F91%30.02 "Hg
* Reported Jan 3 11:30 pm — Jan 18 11:30 pm, Arden-Arcade, Weather by CustomWeather, © 2017

Note: Actual official high and low records may vary slightly from our data, if they occured in-between our weather recording intervals... More about our weather records

Advertising

Arden-Arcade Weather History for the Previous 24 Hours

Scroll right to see more
 ConditionsComfort  
Time TempWeatherWind HumidityBarometerVisibility
11:30 pm
Wed, Jan 18
48 °FMostly cloudy.20 mph87%29.81 "Hg10 mi
10:45 pm48 °FMostly cloudy.21 mph87%29.80 "Hg10 mi
9:45 pm48 °FOvercast.26 mph94%29.78 "Hg5 mi
8:45 pm48 °FPartly cloudy.30 mph87%29.77 "Hg4 mi
7:45 pm48 °FOvercast.35 mph87%29.73 "Hg5 mi
6:53 pm48 °FMostly cloudy.28 mph87%29.74 "Hg10 mi
5:45 pm48 °FMostly cloudy.33 mph87%29.75 "Hg10 mi
4:45 pm46 °FOvercast.12 mph93%29.80 "Hg6 mi
3:50 pm46 °FOvercast.24 mph93%29.82 "Hg2 mi
2:45 pm46 °FMostly cloudy.29 mph100%29.86 "Hg2 mi
1:45 pm48 °FMostly cloudy.26 mph94%29.93 "Hg2 mi
12:55 pm46 °FMostly cloudy.17 mph100%29.98 "Hg1 mi
11:45 am46 °FLight rain. Fog.17 mph100%30.01 "Hg1 mi
10:45 am46 °FCloudy.12 mph100%30.04 "Hg1 mi
9:45 am48 °FOvercast.6 mph94%30.03 "Hg3 mi
8:45 am46 °FOvercast.12 mph93%29.98 "Hg6 mi
7:45 am46 °FOvercast.8 mph93%30.05 "Hg4 mi
6:45 am45 °FOvercast.6 mph100%30.11 "Hg3 mi
5:45 am45 °FOvercast.No wind100%30.12 "Hg3 mi
3:45 am45 °FMostly cloudy.No wind93%30.11 "Hg3 mi
2:45 am43 °FLow clouds.No wind100%30.11 "Hg3 mi
Weather by CustomWeather, © 2017

See weather overviewHow to use our weather pages